Chrysopouli, Greece

4:34 PM EET on December 12, 2017 (GMT +0200)
Megas Alexandros

Weather History for LGKV - October, 2012

Change the Weather History Date:

Wednesday, October 31, 2012

  Actual Average Record
Temperature  
Mean Temperature 57 °F -  
Max Temperature 64 °F 61 °F 71 °F (2008)
Min Temperature 50 °F 46 °F 35 °F (2017)
Degree Days  
Heating Degree Days 8    
Growing Degree Days 7 (Base 50)    
Moisture  
Dew Point 49 °F    
Average Humidity 71    
Maximum Humidity 87    
Minimum Humidity 59    
Precipitation  
Precipitation 0.00 in - - ()
Sea Level Pressure  
Sea Level Pressure 29.97 in    
Wind  
Wind Speed 6 mph ()    
Max Wind Speed 12 mph    
Max Gust Speed -    
Visibility 6.2 miles    
Events      
Averages and records for this station are not official NWS values.
T = Trace of Precipitation, MM = Missing Value Source: Averaged Metar Reports

Daily Weather History Graph

Daily Weather History Graph

Search for Another Location

Airport or City:

Trip Planner

Search our weather history database for the weather conditions in past years. The results will help you decide how hot, cold, wet, or windy it might be!

Date:

Astronomy

Oct. 31, 2012 Rise Set
Actual Time 6:51 AM EET 5:18 PM EET
Civil Twilight 6:22 AM EET 5:46 PM EET
Nautical Twilight 5:50 AM EET 6:19 PM EET
Astronomical Twilight 5:18 AM EET 6:51 PM EET
Moon 6:15 PM EET (10/31) 8:16 AM EET (10/31)
Length of Visible Light 11h 23m
Length of Day
10h 26m
Full, 98% of the Moon is Illuminated
Oct 31
Full
Nov 7
Last Quarter
Nov 14
New
Nov 20
First Quarter
Nov 28
Full

Hourly Weather History & Observations

Time (EET) Temp. Dew Point Humidity Pressure Visibility Wind Dir Wind Speed Gust Speed Precip Events Conditions
5:20 AM 51.8 °F 44.6 °F 76% 29.92 in 6.2 mi ENE 5.8 mph - N/A   Mostly Cloudy
5:50 AM 51.8 °F 44.6 °F 76% 29.92 in 6.2 mi ENE 4.6 mph - N/A   Mostly Cloudy
6:20 AM 51.8 °F 44.6 °F 76% 29.92 in 6.2 mi East 4.6 mph - N/A   Mostly Cloudy
6:50 AM 50.0 °F 46.4 °F 87% 29.95 in 6.2 mi ENE 5.8 mph - N/A   Mostly Cloudy
7:20 AM 50.0 °F 46.4 °F 87% 29.95 in 6.2 mi ENE 5.8 mph - N/A   Mostly Cloudy
7:50 AM 51.8 °F 46.4 °F 82% 29.95 in 6.2 mi ENE 5.8 mph - N/A   Mostly Cloudy
8:20 AM 51.8 °F 46.4 °F 82% 29.98 in 6.2 mi ENE 5.8 mph - N/A   Mostly Cloudy
8:50 AM 57.2 °F 50.0 °F 77% 29.98 in 6.2 mi NE 6.9 mph - N/A   Mostly Cloudy
9:20 AM 57.2 °F 50.0 °F 77% 29.98 in 6.2 mi NE 6.9 mph - N/A   Mostly Cloudy
9:50 AM 57.2 °F 50.0 °F 77% 29.98 in 6.2 mi NE 9.2 mph - N/A   Mostly Cloudy
10:20 AM 57.2 °F 50.0 °F 77% 29.98 in 6.2 mi NE 9.2 mph - N/A   Mostly Cloudy
10:50 AM 62.6 °F 48.2 °F 59% 29.98 in 6.2 mi NE 9.2 mph - N/A   Mostly Cloudy
11:20 AM 62.6 °F 48.2 °F 59% 29.98 in 6.2 mi NE 11.5 mph - N/A   Mostly Cloudy
11:50 AM 64.4 °F 50.0 °F 59% 29.98 in 6.2 mi ENE 11.5 mph - N/A   Scattered Clouds
12:20 PM 64.4 °F 50.0 °F 59% 29.98 in 6.2 mi ENE 11.5 mph - N/A   Scattered Clouds
12:50 PM 64.4 °F 50.0 °F 59% 29.98 in 6.2 mi ENE 10.4 mph - N/A   Partly Cloudy
1:20 PM 64.4 °F 50.0 °F 59% 29.98 in 6.2 mi East 8.1 mph - N/A   Partly Cloudy
1:50 PM 64.4 °F 51.8 °F 64% 29.98 in 6.2 mi East 9.2 mph - N/A   Scattered Clouds
2:20 PM 64.4 °F 51.8 °F 64% 29.98 in 6.2 mi ENE 9.2 mph - N/A   Scattered Clouds
2:50 PM 64.4 °F 51.8 °F 64% 29.98 in 6.2 mi ENE 8.1 mph - N/A   Scattered Clouds
3:50 PM 64.4 °F 51.8 °F 64% 29.98 in 6.2 mi NE 9.2 mph - N/A   Scattered Clouds
4:50 PM 64.4 °F 53.6 °F 68% 29.98 in 6.2 mi East 4.6 mph - N/A   Mostly Cloudy
5:50 PM 62.6 °F 53.6 °F 72% 29.98 in 6.2 mi NE 5.8 mph - N/A   Partly Cloudy
6:50 PM 59.0 °F 51.8 °F 77% 29.98 in 6.2 mi NNE 4.6 mph - N/A   Partly Cloudy
7:50 PM 59.0 °F 51.8 °F 77% 29.98 in 6.2 mi NNE 4.6 mph - N/A   Partly Cloudy